Bahlul Huseynov

Scout - Sumgayit
9 Dez 2028
Samstag
Verarbeitung

Persönlichkeit

Anpassungsfähigkeit (20) Ehrgeiz (4) Kontroverse (7) Loyalität (12) Druck (3) Professionalität (3) Fairness (3) Temperament (3)

Profil

Trainerstil Demokratisch
Lizenz Nationale B
Entschlossenheit 6
Menschenführung 5
Motivation 5
Disziplin 5
Arbeitszufriedenheit
100%
Ermüdung
0%
Rolle Scout
Gehalt 29.4K p/W
Vertrag 14.03.2029

Leistung

Verhalten Gut
Trainingseffektivität
34%
Spielerentwicklung
30%
Verletzungsprävention
25%
Taktische Umsetzung
30%

Letzte Ereignisse

Nahm an einer Scouting-Besprechung teil jetzt
Spieler begutachtet jetzt
Spieler begutachtet 7T her
Nahm an einer Scouting-Besprechung teil 7T her
Spieler begutachtet 7T her
Spieler begutachtet 7T her
Spieler begutachtet 7T her
Spieler begutachtet 7T her

Aktuell beobachtet

91
Spieler Verein Status Fähigkeit Vertrauen Beobachtet Zuletzt beobachtet Letzte Stimme
Gianluca Pugliese Güemes Aktiv 96 / 100 40% 4 08.12.2028 -
Nicolás Cordero Aldosivi Aktiv 132 / 100 40% 3 08.12.2028 -
Lisandro Cabrera Maipú Aktiv 129 / 125 40% 4 07.12.2028 -
Mauro Molina Estudiantes Aktiv 98 / 96 40% 4 07.12.2028 -
Gustavo Viera Cerro Largo Aktiv 89 / 104 40% 2 06.12.2028 -
Esteban Obregón Montevideo City Torque Aktiv 122 / 126 40% 1 06.12.2028 -
Lorenzo Barrera Agropecuario Argentino Aktiv 89 / 113 40% 2 02.12.2028 -
Blas Armoa Gimnasia y Esgrima Aktiv 107 / 127 40% 3 02.12.2028 -
José Barreto Quilmes Aktiv 101 / 101 40% 4 01.12.2028 -
Tomás Jerez San Miguel Aktiv 97 / 100 40% 2 29.11.2028 -
Jerónimo Porto Lapegüe San Telmo Aktiv 120 / 96 40% 2 27.11.2028 -
Agustín Gallo Tristán Suárez Aktiv 96 / 111 40% 4 25.11.2028 -
Franco Ayunta Temperley Aktiv 118 / 114 40% 2 22.11.2028 -
Luis Sandoval Independiente Medellin Aktiv 119 / 103 40% 2 22.11.2028 -
Juan Peinipil Madryn Aktiv 118 / 99 40% 2 21.11.2028 -
Marcos Echeverría Temperley Aktiv 108 / 114 40% 3 21.11.2028 -
Tomás Blanco Estudiantes Aktiv 125 / 122 40% 4 20.11.2028 -
Chimobi Igwilo Rangers International Aktiv 82 / 91 40% 4 18.11.2028 -
Tomás Fernández Aldosivi Aktiv 105 / 114 40% 3 17.11.2028 -
Bruno Miño Almirante Brown Aktiv 115 / 108 40% 1 17.11.2028 -
Joseph Arumala Ikorodu City Aktiv 103 / 100 40% 2 13.11.2028 -
Lucas Pedraza Defensores Unidos Aktiv 111 / 103 40% 2 08.11.2028 -
Matías Sosa Arsenal Aktiv 103 / 117 40% 2 07.11.2028 -
Juan David Rueda Alianza Petrolera Aktiv 122 / 114 40% 4 06.11.2028 -
Gonzalo Flores Almirante Brown Aktiv 95 / 114 40% 3 06.11.2028 -
Santiago Sala Güemes Aktiv 107 / 108 40% 2 05.11.2028 -
Juan Mendoza Güemes Aktiv 101 / 91 40% 1 03.11.2028 -
Genaro Rossi San Martín SJ Aktiv 105 / 106 40% 2 02.11.2028 -
Sebastián Marfort Racing Aktiv 108 / 104 40% 8 29.10.2028 -
Elías Ayala Madryn Aktiv 100 / 113 40% 3 28.10.2028 -
Julián Brea Cobresal Aktiv 96 / 97 40% 4 26.10.2028 -
Mauro Valiente Estudiantes Aktiv 114 / 118 40% 4 24.10.2028 -
Santiago Rodríguez Gimnasia y Esgrima Aktiv 123 / 118 40% 1 21.10.2028 -
Antony Alonso Deportivo Riestra Aktiv 120 / 108 40% 3 18.10.2028 -
Ibrahim Yahaya Barau Aktiv 94 / 99 40% 5 16.10.2028 -
Sebastián de Marco Fenix Aktiv 122 / 93 40% 1 16.10.2028 -
Facundo Krüger Temperley Aktiv 115 / 109 40% 4 15.10.2028 -
Joaquín Zappacosta Morón Aktiv 77 / 104 40% 3 14.10.2028 -
Renzo Conechny Tristán Suárez Aktiv 109 / 108 40% 1 13.10.2028 -
Renzo Reynaga Patronato Aktiv 127 / 105 40% 3 04.10.2028 -
Nahuel Marzochi Colon Aktiv 94 / 88 40% 1 03.10.2028 -
Enzo González Defensores Aktiv 101 / 108 40% 4 02.10.2028 -
Nahuel Albano La Luz Aktiv 111 / 89 40% 1 28.09.2028 -
Álex Perdomo Defensor Sporting Aktiv 86 / 105 40% 1 22.09.2028 -
Zurab Museliani Dila Aktiv 87 / 84 40% 1 21.09.2028 -
Sagir Arce Saburtalo Aktiv 106 / 95 40% 1 18.09.2028 -
Dylan Cabral Arsenal Aktiv 98 / 112 40% 1 17.09.2028 -
Germán Cervera Alvarado Aktiv 104 / 86 40% 1 15.09.2028 -
Nicolás Medina Atlanta Aktiv 109 / 102 40% 2 10.09.2028 -
Alao Dabani Nasarawa United Aktiv 80 / 93 40% 1 07.09.2028 -
Tiago Taobas Central Norte Aktiv 91 / 80 40% 1 06.09.2028 -
Davit Gotsiridze Kolkheti Aktiv 82 / 94 40% 1 30.08.2028 -
Youssef Dalouzi Renaissance Aktiv 98 / 98 40% 1 28.08.2028 -
Sebastián Cocimano Nueva Chicago Aktiv 103 / 119 40% 1 21.08.2028 -
Enrico Baldini Bra Aktiv 86 / 83 40% 1 17.08.2028 -
Marcelo Orellana Vis Pesaro Aktiv 103 / 127 40% 1 17.08.2028 -
Guillaume Furrer Lecco Aktiv 112 / 96 40% 1 16.08.2028 -
Thomas Alberti Cavese Aktiv 102 / 99 40% 1 16.08.2028 -
Luca Vido Union Brescia Abgelehnt 115 / 99 40% 2 14.08.2028 -
Manuele Malotti Livorno Aktiv 113 / 118 40% 1 11.08.2028 -
Alan Cisnero Exeter City Aktiv 103 / 95 40% 1 08.08.2028 -
Tyler Walton Bromley Aktiv 86 / 95 40% 1 07.08.2028 -
Matty Stevens AFC Wimbledon Aktiv 106 / 124 40% 1 07.08.2028 -
Fletcher Boyd Accrington Stanley Aktiv 115 / 99 40% 2 06.08.2028 -
Giacomo Zecca Torres Aktiv 123 / 96 40% 1 06.08.2028 -
Giuseppe Panico Foggia Aktiv 120 / 113 40% 1 05.08.2028 -
Dani Ángel Sampdoria Aktiv 107 / 116 40% 1 05.08.2028 -
Will Davies Fleetwood Town Aktiv 93 / 116 40% 1 04.08.2028 -
John Kelly Fleetwood Town Aktiv 109 / 79 40% 1 04.08.2028 -
Aaron Drinan Swindon Town Abgelehnt 125 / 93 40% 2 03.08.2028 -
Emanuele Pecorino Catanzaro Aktiv 134 / 130 40% 1 03.08.2028 -
Ismail Achik Salernitana Aktiv 106 / 108 40% 2 01.08.2028 -
Ged Garner Newport County Aktiv 86 / 88 40% 1 01.08.2028 -
Namiq Ələsgərov Zira Abgelehnt 97 / 100 55% 1 31.07.2028 -
Millar Matthews-Lewis Tranmere Rovers Aktiv 84 / 103 40% 1 30.07.2028 -
Vincenzo Plescia Latina Aktiv 98 / 121 40% 1 27.07.2028 -
Kylian Kouassi Colchester United Aktiv 102 / 119 40% 1 26.07.2028 -
Seb Palmer-Houlden Gillingham Aktiv 88 / 105 40% 1 26.07.2028 -
Alessandro Ghillani Lumezzane Aktiv 120 / 107 40% 1 20.07.2028 -
Louis Appéré Cambridge United Aktiv 104 / 97 40% 1 20.07.2028 -
Jack Vale Sorrento Aktiv 110 / 89 40% 1 19.07.2028 -
Jacob Brown Barrow AFC Aktiv 116 / 127 40% 1 19.07.2028 -
Mason Bennett Harrogate Town Verhandlung 109 / 104 40% 1 27.06.2028 -
Vladislav Sarveli Nizhniy Novgorod Aktiv 120 / 116 40% 1 26.06.2028 -
Gianluca D'Auria Potenza Aktiv 120 / 93 40% 1 26.06.2028 -
Ilja Zhbanov Cobresal Abgelehnt 90 / 94 93% 1 01.06.2028 -
Anton Shamonin Akhmat Grozny Abgelehnt 93 / 98 89% 1 01.06.2028 -
Patricio Moyano Defensores Abgelehnt 118 / 120 67% 1 01.06.2028 -
Rahid Ramazanov Inter Aktiv 107 / 98 55% 1 06.06.2027 -
Leroy-Jacques Mickels Zira Aktiv 87 / 88 55% 1 18.01.2027 -
Afran Abdullayev Khazar Aktiv 94 / 94 55% 1 24.08.2026 -